Alma, MI

12:51 PM EST on February 26, 2017 (GMT -0500)
Gratiot Community

Weather History for KAMN - December, 2013

Change the Weather History Date:

Monday, December 16, 2013

  Actual Average Record
Temperature  
Mean Temperature 5 °F -  
Max Temperature 16 °F 34 °F 52 °F (1959)
Min Temperature -6 °F 21 °F -7 °F (1951)
Degree Days  
Heating Degree Days 60    
Moisture  
Dew Point 4 °F    
Average Humidity 77    
Maximum Humidity 92    
Minimum Humidity 54    
Precipitation  
Precipitation 0.00 in - - ()
Sea Level Pressure  
Sea Level Pressure 30.07 in    
Wind  
Wind Speed 4 mph (SSE)    
Max Wind Speed 10 mph    
Max Gust Speed -    
Visibility 9 miles    
Events Snow    
Averages and records for this station are not official NWS values.
T = Trace of Precipitation, MM = Missing Value Source: NWS Daily Summary

Daily Weather History Graph

Daily Weather History Graph

Search for Another Location

Airport or City:

Trip Planner

Search our weather history database for the weather conditions in past years. The results will help you decide how hot, cold, wet, or windy it might be!

Date:

Astronomy

Dec. 16, 2013 Rise Set
Actual Time 8:05 AM EST 5:04 PM EST
Civil Twilight 7:32 AM EST 5:36 PM EST
Nautical Twilight 6:56 AM EST 6:12 PM EST
Astronomical Twilight 6:21 AM EST 6:47 PM EST
Moon 4:55 PM EST (12/16) 7:11 AM EST (12/16)
Length of Visible Light 10h 04m
Length of Day
8h 58m
Full, 100% of the Moon is Illuminated
Dec 16
Full
Dec 17
Full
Dec 25
Last Quarter
Jan 1
New
Jan 7
First Quarter

Hourly Weather History & Observations

Time (EST) Temp. Windchill Dew Point Humidity Pressure Visibility Wind Dir Wind Speed Gust Speed Precip Events Conditions
12:12 AM 13.1 °F 0.9 °F 8.2 °F 81% 29.98 in 10.0 mi SW 9.2 mph - N/A   Clear
12:32 AM 12.9 °F 1.6 °F 7.7 °F 80% 29.98 in 10.0 mi SW 8.1 mph - N/A   Clear
12:49 AM 12.7 °F 2.4 °F 7.5 °F 80% 29.98 in 10.0 mi SW 6.9 mph - N/A   Clear
1:09 AM 12.0 °F 0.5 °F 7.0 °F 80% 29.99 in 10.0 mi WSW 8.1 mph - N/A   Clear
1:30 AM 11.8 °F 0.3 °F 6.8 °F 80% 29.99 in 10.0 mi WSW 8.1 mph - N/A   Clear
1:52 AM 11.3 °F 0.7 °F 6.3 °F 80% 30.00 in 10.0 mi West 6.9 mph - N/A   Clear
2:12 AM 10.9 °F 0.2 °F 6.1 °F 81% 30.01 in 10.0 mi WSW 6.9 mph - N/A   Clear
2:29 AM 10.6 °F -0.2 °F 6.1 °F 82% 30.01 in 10.0 mi WSW 6.9 mph - N/A   Clear
2:49 AM 10.4 °F -3.3 °F 6.4 °F 84% 30.03 in 10.0 mi WSW 10.4 mph - N/A   Clear
3:11 AM 10.4 °F -0.4 °F 6.4 °F 84% 30.04 in 10.0 mi West 6.9 mph - N/A   Scattered Clouds
3:32 AM 9.3 °F 2.8 °F 5.7 °F 85% 30.05 in 10.0 mi West 3.5 mph - N/A   Clear
3:52 AM 9.1 °F 2.6 °F 6.3 °F 88% 30.06 in 10.0 mi WSW 3.5 mph - N/A   Clear
4:12 AM 5.7 °F - 2.8 °F 88% 30.06 in 10.0 mi Calm Calm - N/A   Clear
4:32 AM 4.3 °F - 2.5 °F 92% 30.06 in 10.0 mi Calm Calm - N/A   Clear
4:52 AM 3.2 °F - 0.9 °F 90% 30.06 in 10.0 mi Calm Calm - N/A   Clear
5:12 AM 1.9 °F - -0.4 °F 90% 30.06 in 10.0 mi Calm Calm - N/A   Clear
5:32 AM -1.3 °F - -3.8 °F 89% 30.07 in 10.0 mi Calm Calm - N/A   Clear
5:52 AM -2.7 °F - -5.8 °F 87% 30.08 in 10.0 mi Calm Calm - N/A   Clear
6:12 AM -2.7 °F - -5.3 °F 89% 30.08 in 10.0 mi Calm Calm - N/A   Clear
6:28 AM -0.8 °F - -3.3 °F 89% 30.08 in 10.0 mi Calm Calm - N/A   Clear
6:50 AM -3.6 °F - -7.1 °F 85% 30.09 in 7.0 mi Calm Calm - N/A   Clear
7:10 AM -5.3 °F - -8.5 °F 86% 30.09 in 10.0 mi Calm Calm - N/A   Clear
7:30 AM -4.0 °F - -7.1 °F 87% 30.10 in 10.0 mi Calm Calm - N/A   Clear
7:50 AM -5.4 °F - -8.7 °F 86% 30.11 in 7.0 mi Calm Calm - N/A   Scattered Clouds
8:10 AM -6.5 °F - -9.9 °F 85% 30.11 in 10.0 mi Calm Calm - N/A   Scattered Clouds
8:30 AM -4.0 °F - -6.9 °F 87% 30.12 in 7.0 mi Calm Calm - N/A   Clear
8:51 AM -4.7 °F - -8.0 °F 86% 30.12 in 7.0 mi Calm Calm - N/A   Clear
9:11 AM -4.9 °F - -8.0 °F 87% 30.13 in 10.0 mi Calm Calm - N/A   Clear
9:31 AM -1.7 °F - -4.7 °F 87% 30.14 in 7.0 mi Calm Calm - N/A   Clear
9:51 AM 0.3 °F - -2.2 °F 89% 30.14 in 7.0 mi Calm Calm - N/A   Clear
10:11 AM 1.2 °F - -1.7 °F 88% 30.16 in 10.0 mi Calm Calm - N/A   Clear
10:33 AM 6.6 °F - 4.6 °F 92% 30.16 in 5.0 mi Calm Calm - N/A   Clear
10:53 AM 9.7 °F -0.1 °F 7.9 °F 92% 30.16 in 10.0 mi NE 5.8 mph - N/A   Clear
11:13 AM 11.8 °F 5.7 °F 9.7 °F 91% 30.16 in 10.0 mi NE 3.5 mph - N/A   Clear
11:34 AM 12.7 °F 6.7 °F 8.2 °F 82% 30.14 in 10.0 mi ENE 3.5 mph - N/A   Clear
11:54 AM 14.4 °F 3.3 °F 5.2 °F 67% 30.13 in 10.0 mi East 8.1 mph - N/A   Clear
12:09 PM 14.0 °F 5.1 °F 4.8 °F 67% 30.12 in 10.0 mi ESE 5.8 mph - N/A   Clear
12:29 PM 14.0 °F 2.9 °F 4.1 °F 65% 30.12 in 10.0 mi East 8.1 mph - N/A   Clear
12:49 PM 14.7 °F 4.8 °F 4.1 °F 63% 30.11 in 10.0 mi East 6.9 mph - N/A   Clear
1:09 PM 14.5 °F 7.1 °F 4.5 °F 64% 30.11 in 10.0 mi NE 4.6 mph - N/A   Clear
1:29 PM 15.3 °F 9.6 °F 4.8 °F 63% 30.10 in 10.0 mi ENE 3.5 mph - N/A   Clear
1:49 PM 15.8 °F - 5.0 °F 62% 30.10 in 10.0 mi Calm Calm - N/A   Clear
2:09 PM 16.3 °F 10.8 °F 5.2 °F 62% 30.09 in 10.0 mi SSE 3.5 mph - N/A   Clear
2:32 PM 16.7 °F 11.2 °F 5.0 °F 60% 30.09 in 10.0 mi South 3.5 mph - N/A   Clear
2:52 PM 16.7 °F - 5.2 °F 61% 30.08 in 10.0 mi Calm Calm - N/A   Clear
3:12 PM 16.5 °F - 5.5 °F 62% 30.08 in 10.0 mi Calm Calm - N/A   Clear
3:32 PM 15.6 °F 10.0 °F 4.1 °F 60% 30.07 in 10.0 mi SSE 3.5 mph - N/A   Scattered Clouds
3:52 PM 16.3 °F - 3.6 °F 57% 30.08 in 10.0 mi Calm Calm - N/A   Mostly Cloudy
4:12 PM 16.9 °F - 2.8 °F 54% 30.08 in 10.0 mi Calm Calm - N/A   Overcast
4:32 PM 15.8 °F 8.6 °F 5.5 °F 64% 30.07 in 10.0 mi ENE 4.6 mph - N/A   Overcast
4:53 PM 14.5 °F 8.8 °F 5.7 °F 68% 30.07 in 10.0 mi East 3.5 mph - N/A   Overcast
5:13 PM 14.4 °F 5.5 °F 5.9 °F 69% 30.06 in 10.0 mi ENE 5.8 mph - N/A   Overcast
5:33 PM 15.4 °F - 5.7 °F 65% 30.06 in 10.0 mi Calm Calm - N/A   Overcast
5:50 PM 16.2 °F - 5.2 °F 62% 30.06 in 10.0 mi Calm Calm - N/A   Overcast
6:10 PM 15.8 °F - 6.6 °F 67% 30.06 in 10.0 mi Calm Calm - N/A   Overcast
6:30 PM 15.6 °F - 4.8 °F 62% 30.06 in 10.0 mi Calm Calm - N/A   Mostly Cloudy
6:50 PM 14.9 °F - 5.0 °F 65% 30.06 in 10.0 mi Calm Calm - N/A   Mostly Cloudy
7:10 PM 12.2 °F - 5.2 °F 73% 30.06 in 10.0 mi Calm Calm - N/A   Overcast
7:30 PM 12.4 °F - 6.6 °F 78% 30.06 in 10.0 mi Calm Calm - N/A   Overcast
7:51 PM 13.8 °F - 7.7 °F 77% 30.06 in 10.0 mi Calm Calm - N/A   Overcast
8:11 PM 14.4 °F - 7.9 °F 75% 30.06 in 10.0 mi Calm Calm - N/A   Overcast
8:33 PM 15.3 °F - 8.2 °F 74% 30.06 in 10.0 mi Calm Calm - N/A   Overcast
8:53 PM 15.6 °F - 8.6 °F 74% 30.05 in 10.0 mi Calm Calm - N/A   Overcast
9:13 PM 15.8 °F - 8.6 °F 73% 30.04 in 10.0 mi Calm Calm - N/A   Overcast
9:33 PM 15.1 °F - 7.9 °F 73% 30.03 in 10.0 mi Calm Calm - N/A   Overcast
9:53 PM 15.8 °F 6.1 °F 8.4 °F 73% 30.01 in 10.0 mi East 6.9 mph - N/A   Overcast
10:13 PM 15.8 °F 8.6 °F 7.7 °F 70% 30.01 in 10.0 mi ESE 4.6 mph - N/A   Overcast
10:34 PM 15.8 °F 8.6 °F 8.2 °F 72% 30.01 in 7.0 mi SE 4.6 mph - N/A Snow Light Snow
10:54 PM 15.8 °F 10.2 °F 9.5 °F 76% 30.00 in 2.5 mi SSE 3.5 mph - N/A Snow Light Snow
11:14 PM 15.1 °F 7.7 °F 11.8 °F 87% 30.00 in 1.8 mi SSE 4.6 mph - N/A Snow Light Snow
11:29 PM 14.9 °F 9.2 °F 12.4 °F 90% 30.01 in 1.2 mi SSW 3.5 mph - N/A Snow Light Snow
11:51 PM 14.7 °F 9.0 °F 12.6 °F 91% 30.01 in 2.0 mi South 3.5 mph - N/A Snow Light Snow